Overview Statistics Trail Chart Weather Telemetry Raw packets
 

This is the latest recevied weather packets stored in our database for station/object CQ0XCH-11. If no packets are shown the sender has not sent any weather packets the latest 10 day(s).

<< 88 89 90 91 92 93 94 >>
Time Temp. Humidity Pressure Rain* Wind** Luminosity Snow
1777413385 24.44° C 39% 987.8 hPa 0 mm - - -
1777413233 23.89° C 39% 987.6 hPa 0 mm - - -
1777413111 23.89° C 39% 987.5 hPa 0 mm - - -
1777412987 23.89° C 39% 987.5 hPa 0 mm - - -
1777412763 23.89° C 40% 987.4 hPa 0 mm - - -
1777412617 23.89° C 39% 987.4 hPa 0 mm - - -
1777412494 23.89° C 40% 987.3 hPa 0 mm - - -
1777412248 23.89° C 40% 987.4 hPa 0 mm - - -
1777412021 23.33° C 40% 987.5 hPa 0 mm - - -
1777411756 23.33° C 40% 987.4 hPa 0 mm - - -
1777411684 23.89° C 39% 987.4 hPa 0 mm - - -
1777411395 23.89° C 39% 987.6 hPa 0 mm - - -
1777411287 23.89° C 38% 987.6 hPa 0 mm - - -
1777410933 23.89° C 38% 987.8 hPa 0 mm - - -
1777410774 24.44° C 38% 987.9 hPa 0 mm - - -
1777410670 24.44° C 37% 987.8 hPa 0 mm - - -
1777410523 24.44° C 37% 987.8 hPa 0 mm - - -
1777410419 24.44° C 36% 987.8 hPa 0 mm - - -
1777410277 25° C 36% 987.8 hPa 0 mm - - -
1777410164 25° C 36% 987.7 hPa 0 mm - - -
1777410053 25° C 35% 987.7 hPa 0 mm - - -
1777409930 25° C 35% 987.7 hPa 0 mm - - -
1777409804 25° C 35% 987.7 hPa 0 mm - - -
1777409655 25° C 36% 987.7 hPa 0 mm - - -
1777409556 25° C 35% 987.6 hPa 0 mm - - -

* Rain since midnight (hover to see other rain measurements)
** Current wind speed in m/s (hover to see current wind gust speed)